Wind_Speed
27 27 18 22 21 19 16 8 3 9 14 20 22 20 21 28 31 32 32 31 30 30 30 29 31 32 31 33 35 39 44 42 39 39 32 31 38 47 52 53 49 51 61 55 60
24 26 22 17 19 17 14 11 0 11 16 19 21 22 22 26 29 30 30 31 30 31 31 30 30 32 33 32 34 37 38 37 36 38 38 34 43 49 54 54 56 52 57 60 63
23 23 23 15 14 15 13 10 9 6 11 15 16 18 21 24 28 30 32 32 31 32 33 33 32 32 33 35 37 36 35 37 38 39 41 36 41 48 55 58 58 57 55 54 59
20 20 21 20 11 10 11 10 9 9 9 8 9 11 14 16 20 24 28 31 32 33 34 34 35 35 35 35 36 37 39 40 37 40 43 41 38 44 53 57 60 64 63 64 66
18 18 17 18 17 9 6 6 7 7 7 8 9 8 9 11 12 15 17 19 23 26 29 32 35 35 35 36 38 39 38 41 40 42 44 45 44 42 41 51 61 64 65 64 67
17 16 15 15 14 14 11 4 1 2 4 5 7 8 9 10 10 10 12 14 16 18 19 22 23 26 29 31 33 37 39 41 43 40 40 42 42 43 40 49 53 60 65 65 67
17 15 14 13 12 10 9 8 7 1 4 5 6 7 9 11 9 10 11 13 14 15 17 19 21 23 24 26 30 32 35 37 38 42 44 43 45 42 37 45 54 56 60 63 63
19 16 14 13 11 10 8 5 4 4 2 3 7 10 11 12 13 14 14 15 16 18 20 20 22 23 24 26 29 31 33 34 35 38 40 41 49 44 39 41 46 58 59 59 58
19 18 14 14 12 11 9 7 5 3 3 3 3 5 8 11 13 13 14 17 19 21 23 23 25 26 28 30 31 30 35 36 35 38 43 45 48 47 46 43 49 50 63 65 64
20 19 17 14 13 13 12 10 9 7 6 7 7 8 8 10 11 12 14 14 16 17 19 21 21 21 24 29 30 34 36 38 41 40 44 48 50 51 52 51 48 51 58 67 68
22 21 19 17 14 14 14 14 12 12 10 10 10 11 13 13 13 13 15 17 17 17 20 21 22 21 28 31 32 34 37 40 42 45 48 49 52 52 54 54 53 48 52 59 64
24 21 21 19 17 14 16 15 15 15 15 13 14 13 15 16 17 18 18 19 21 22 22 23 23 26 30 32 36 39 42 44 45 44 49 49 52 51 52 55 54 52 49 54 57
25 23 23 19 19 17 16 17 15 17 19 19 19 19 19 19 21 21 20 22 25 26 25 25 29 30 33 36 40 42 44 46 50 44 48 51 52 49 50 50 52 54 53 50 52
23 24 24 22 20 19 19 17 17 18 19 22 23 23 22 20 24 26 26 26 27 28 28 24 30 33 35 37 40 44 40 43 39 43 44 45 52 48 47 53 50 52 53 51 57
21 24 24 24 21 20 18 18 18 19 22 21 22 23 23 22 26 30 30 28 26 28 31 26 30 34 35 36 37 42 40 39 37 43 48 40 49 41 40 48 50 51 53 53 55
24 20 23 25 22 21 20 18 19 21 23 24 22 22 22 23 26 28 29 31 31 33 33 31 34 36 37 33 36 40 42 39 42 46 51 32 44 42 32 36 44 56 57 58 58
24 23 19 22 23 21 21 21 20 23 26 26 23 20 20 21 27 29 30 32 32 33 32 34 37 41 45 48 44 44 45 50 53 48 52 38 42 38 35 29 32 42 55 63 58
27 27 27 23 22 24 24 23 22 26 29 27 26 24 26 25 28 28 28 31 31 34 35 38 41 44 47 50 51 49 48 51 55 52 42 38 38 33 37 37 31 33 42 51 61
27 31 31 27 27 23 26 25 26 29 28 27 26 25 30 29 29 29 30 32 33 33 36 41 45 46 51 54 55 54 51 51 47 34 40 40 35 31 32 34 36 36 35 40 46
24 28 31 30 29 29 27 28 30 29 26 28 25 26 27 30 32 33 33 34 36 32 35 42 46 45 47 47 47 46 40 37 41 45 43 32 31 30 27 29 34 31 30 34 31
25 26 29 29 28 28 27 29 30 30 28 30 30 28 28 31 33 34 35 33 33 33 37 38 40 37 36 36 34 28 25 26 23 30 24 27 26 27 25 25 28 33 32 29 34
28 26 30 32 29 27 26 27 28 31 31 30 30 28 26 29 32 31 30 30 31 32 34 35 36 29 26 24 24 21 17 21 28 34 30 32 28 29 27 26 29 33 34 24 30
29 28 31 32 31 27 25 23 26 28 28 28 29 27 25 28 31 28 27 28 29 32 32 32 30 25 18 20 19 19 19 25 29 25 26 29 25 30 29 30 32 32 31 19 23
28 30 31 33 33 30 26 25 23 26 26 27 28 28 26 27 29 27 26 26 28 29 28 29 25 24 22 21 21 17 19 20 22 24 20 19 19 24 30 33 20 27 34 27 28
31 31 32 34 36 34 29 29 28 24 25 25 24 27 27 26 26 26 26 23 27 27 26 25 21 21 21 23 22 17 16 17 16 17 22 17 22 19 23 29 26 26 29 30 29
31 32 34 35 37 36 36 28 31 28 24 26 25 26 26 24 24 27 20 22 25 26 26 20 18 21 21 22 20 18 18 17 16 18 20 23 23 23 24 27 30 30 32 35 39
33 34 36 38 38 39 35 32 29 26 25 26 26 24 24 23 25 20 18 22 22 23 26 21 19 19 17 23 20 15 16 14 15 18 19 25 26 28 29 29 30 34 40 42 47
Wind_Direction
346 353 346 355 1 5 4 353 193 182 175 175 167 179 204 211 218 223 228 232 233 234 235 232 235 234 234 237 236 238 239 240 242 245 240 230 229 231 234 237 235 247 237 230 234
348 350 356 355 5 12 21 23 94 166 163 164 168 172 190 203 210 217 223 229 234 237 240 238 238 239 239 238 239 241 244 244 241 240 236 227 228 225 230 234 239 233 241 243 240
348 350 355 357 6 17 29 49 65 98 148 156 162 173 187 196 204 211 217 223 228 234 239 241 241 239 240 239 239 238 239 243 241 242 242 234 229 222 228 231 230 237 236 235 241
342 350 352 1 5 13 29 42 66 89 102 110 136 162 179 191 203 212 217 221 225 229 233 238 241 241 240 242 242 241 242 240 238 241 242 239 232 229 225 229 229 232 235 237 240
336 342 351 353 5 14 10 38 55 75 104 127 140 156 173 188 193 206 212 220 227 232 237 240 242 244 246 246 247 249 248 249 245 244 245 243 238 233 231 233 230 233 235 240 244
331 332 340 350 354 5 22 2 32 87 106 131 152 169 187 201 208 215 220 224 228 232 235 239 241 244 248 252 253 254 255 255 255 254 252 253 248 244 238 235 234 234 234 236 243
326 324 324 334 345 350 360 17 18 296 205 192 186 179 188 210 217 212 221 229 235 241 244 247 250 251 252 253 252 251 251 253 255 258 257 255 250 242 242 239 239 238 237 234 239
319 320 316 314 323 333 337 337 8 359 329 232 222 216 217 226 232 227 225 235 240 244 249 253 255 255 255 255 258 261 262 261 263 263 261 260 250 250 242 237 238 240 243 245 243
321 313 313 306 301 306 313 316 307 296 292 270 245 239 227 230 242 249 247 242 247 250 254 253 255 257 260 261 260 260 259 257 253 255 257 257 252 251 248 237 231 229 236 241 243
326 320 308 306 297 289 286 289 294 291 272 269 267 263 253 237 238 244 251 247 244 248 254 261 263 265 266 266 264 262 263 262 259 254 255 256 259 255 254 251 242 235 234 236 239
323 325 314 303 300 288 280 274 279 284 282 272 270 267 264 264 264 245 245 257 262 263 260 268 273 273 268 271 270 270 268 268 264 262 258 258 258 254 255 255 252 244 238 240 240
320 320 321 310 300 294 283 272 267 270 268 263 271 268 264 262 264 272 268 266 265 267 269 273 273 273 275 277 278 277 276 273 273 267 265 260 257 254 256 258 255 251 243 237 242
324 320 317 318 303 297 288 280 272 263 267 268 266 268 266 263 259 256 260 268 271 270 271 277 277 279 279 280 280 280 281 284 283 270 266 265 261 259 256 258 252 254 244 241 238
320 317 318 314 310 297 291 290 281 272 265 267 270 267 264 263 261 264 265 267 268 275 278 281 281 278 277 281 283 280 285 287 287 278 268 260 262 254 252 249 242 247 253 245 241
327 318 318 313 310 305 294 289 283 275 272 264 263 269 269 266 266 266 268 266 271 274 279 278 280 283 287 290 284 287 285 282 286 283 273 268 271 261 254 249 245 237 242 249 247
322 321 325 320 305 304 299 287 283 275 265 264 265 263 265 266 264 267 273 273 271 273 274 279 284 289 291 291 284 287 279 282 293 282 272 275 274 274 264 263 244 237 233 237 239
316 315 318 326 309 297 295 289 279 272 276 276 274 273 268 265 266 269 271 276 282 287 286 287 293 299 303 302 296 291 290 282 286 278 271 271 274 285 275 271 260 247 236 238 243
308 303 305 306 308 300 292 285 279 276 275 282 283 282 276 272 272 275 280 285 288 290 290 293 298 299 300 296 294 289 286 282 288 278 279 258 276 291 280 266 270 259 248 245 245
300 300 300 303 299 299 290 280 273 275 284 286 291 286 285 279 279 280 281 281 284 286 288 293 297 300 298 296 293 291 285 280 275 267 277 277 281 272 270 250 261 262 258 251 252
318 315 313 309 306 300 295 281 273 274 276 277 278 275 276 275 274 277 277 282 285 284 288 293 295 296 294 292 288 285 286 278 275 278 272 272 279 269 268 259 245 261 264 264 257
329 325 322 316 307 304 300 291 280 279 275 273 273 269 265 264 263 268 273 275 279 283 290 290 292 297 296 291 296 289 268 263 263 265 276 282 281 274 278 250 252 253 268 275 261
327 328 325 318 316 305 301 291 285 276 278 283 284 287 282 276 271 269 271 277 278 286 291 296 300 306 305 307 309 305 278 264 264 263 267 277 277 277 275 266 252 259 268 274 271
324 327 327 323 322 315 304 301 295 286 290 289 287 285 285 275 274 274 275 276 286 293 299 303 304 311 308 308 315 310 285 266 276 280 270 273 272 280 271 268 259 260 267 261 253
325 326 327 324 318 319 310 296 287 287 285 285 287 285 284 282 279 278 279 277 287 295 300 302 302 309 310 305 305 307 298 292 275 267 271 274 275 275 263 276 270 270 270 265 270
324 325 325 323 318 317 319 306 294 291 288 283 283 283 284 284 280 279 273 285 292 297 300 302 299 308 308 307 308 301 289 286 283 280 270 270 279 276 279 272 270 267 271 274 265
322 323 322 318 314 312 313 311 302 289 286 291 286 279 285 285 275 270 278 287 292 297 299 301 293 303 295 301 304 305 300 276 284 292 283 284 280 274 273 268 265 269 269 273 276
318 320 319 316 315 313 315 312 301 287 278 284 285 282 283 280 273 264 274 285 293 294 296 298 295 304 301 305 302 302 313 298 284 285 287 281 280 279 283 275 271 275 272 270 271
Height
5771 5765 5758 5752 5745 5739 5734 5730 5729 5728 5730 5734 5736 5745 5752 5757 5762 5766 5770 5774 5777 5780 5782 5786 5788 5791 5794 5796 5799 5801 5803 5808 5813 5817 5825 5827 5827 5829 5827 5831 5834 5835 5834 5835 5834
5771 5765 5759 5753 5748 5743 5738 5734 5732 5731 5731 5734 5737 5742 5749 5754 5759 5764 5767 5769 5773 5775 5777 5780 5783 5786 5789 5791 5793 5795 5798 5803 5806 5807 5811 5817 5816 5817 5819 5821 5823 5828 5828 5833 5828
5770 5765 5760 5754 5750 5746 5743 5739 5737 5736 5735 5735 5738 5742 5747 5751 5756 5760 5763 5766 5768 5770 5773 5776 5778 5781 5783 5785 5788 5790 5793 5794 5798 5799 5801 5808 5806 5808 5810 5813 5820 5818 5822 5822 5820
5770 5765 5761 5756 5751 5749 5747 5744 5741 5740 5739 5740 5741 5743 5746 5750 5754 5756 5760 5762 5765 5767 5769 5771 5772 5775 5777 5778 5779 5782 5784 5786 5791 5791 5793 5798 5800 5800 5802 5808 5809 5811 5811 5814 5814
5769 5765 5761 5757 5753 5750 5749 5747 5746 5744 5743 5742 5743 5745 5746 5748 5751 5753 5755 5758 5761 5763 5766 5767 5768 5770 5772 5773 5774 5776 5779 5779 5784 5786 5785 5785 5791 5792 5802 5799 5801 5801 5804 5806 5807
5768 5765 5761 5758 5755 5752 5749 5749 5748 5747 5746 5745 5745 5745 5746 5748 5749 5751 5753 5755 5756 5758 5760 5762 5764 5766 5767 5769 5771 5771 5773 5773 5774 5777 5777 5776 5781 5784 5796 5790 5791 5793 5797 5798 5798
5766 5763 5761 5758 5755 5753 5751 5749 5748 5747 5747 5746 5746 5747 5747 5747 5747 5748 5750 5751 5752 5753 5754 5755 5757 5759 5761 5761 5762 5763 5764 5764 5766 5764 5764 5763 5769 5779 5782 5781 5781 5783 5786 5789 5791
5765 5761 5759 5757 5755 5753 5751 5749 5748 5747 5746 5746 5745 5746 5746 5745 5745 5746 5747 5748 5749 5749 5750 5752 5752 5753 5754 5755 5755 5756 5757 5759 5760 5756 5753 5752 5762 5766 5767 5766 5769 5773 5776 5779 5783
5762 5760 5757 5755 5754 5753 5751 5749 5748 5747 5746 5745 5745 5745 5745 5744 5744 5744 5745 5746 5746 5746 5746 5748 5749 5749 5750 5749 5750 5750 5749 5749 5750 5746 5743 5742 5752 5756 5751 5751 5755 5758 5762 5765 5768
5760 5757 5755 5752 5751 5751 5749 5748 5747 5746 5745 5744 5743 5745 5744 5744 5743 5743 5742 5742 5743 5743 5743 5742 5743 5743 5742 5740 5741 5740 5739 5739 5739 5740 5734 5734 5742 5744 5740 5739 5745 5748 5749 5750 5754
5756 5754 5752 5750 5748 5747 5747 5747 5747 5745 5743 5742 5741 5741 5740 5740 5740 5741 5740 5739 5738 5738 5737 5737 5737 5737 5733 5732 5732 5731 5730 5728 5728 5727 5725 5726 5728 5734 5729 5728 5735 5740 5743 5742 5745
5754 5751 5748 5747 5745 5743 5742 5742 5742 5742 5739 5739 5738 5738 5737 5737 5736 5735 5735 5735 5734 5733 5731 5732 5730 5728 5725 5724 5723 5721 5719 5717 5717 5717 5713 5714 5715 5722 5721 5718 5723 5728 5731 5734 5735
5750 5749 5745 5743 5741 5740 5738 5737 5738 5737 5735 5734 5733 5733 5733 5733 5731 5731 5730 5730 5728 5726 5727 5726 5722 5721 5718 5717 5713 5711 5709 5707 5706 5707 5704 5701 5700 5709 5712 5709 5712 5715 5719 5722 5724
5747 5744 5742 5739 5738 5735 5733 5733 5733 5731 5731 5729 5727 5727 5727 5727 5725 5723 5723 5724 5722 5720 5720 5721 5715 5712 5712 5709 5706 5703 5702 5696 5694 5692 5691 5690 5683 5693 5700 5696 5699 5703 5706 5709 5711
5743 5739 5737 5735 5733 5731 5730 5727 5727 5727 5725 5724 5722 5721 5721 5722 5719 5716 5717 5717 5716 5714 5712 5715 5709 5705 5703 5700 5697 5694 5690 5688 5685 5681 5678 5682 5675 5682 5684 5684 5690 5691 5691 5695 5697
5738 5735 5732 5731 5729 5726 5724 5722 5721 5722 5719 5717 5717 5716 5716 5714 5712 5711 5709 5708 5708 5705 5703 5703 5700 5697 5695 5693 5688 5683 5681 5679 5676 5672 5666 5673 5668 5669 5674 5671 5670 5674 5676 5679 5683
5734 5729 5727 5725 5725 5721 5719 5717 5716 5712 5712 5711 5711 5711 5711 5709 5707 5706 5704 5701 5698 5695 5694 5692 5690 5685 5681 5677 5676 5673 5670 5665 5661 5660 5656 5662 5657 5660 5662 5661 5659 5657 5663 5668 5672
5728 5724 5721 5719 5718 5716 5713 5712 5709 5705 5703 5704 5704 5704 5703 5702 5699 5699 5697 5693 5692 5689 5685 5682 5680 5678 5674 5669 5665 5663 5661 5656 5648 5646 5647 5650 5647 5651 5651 5651 5651 5650 5653 5656 5660
5721 5718 5715 5713 5711 5709 5707 5704 5701 5698 5698 5698 5698 5698 5694 5693 5692 5691 5689 5686 5685 5682 5680 5673 5669 5668 5661 5656 5652 5648 5646 5644 5639 5637 5636 5639 5640 5641 5639 5640 5641 5641 5642 5644 5646
5716 5712 5709 5705 5704 5701 5699 5697 5694 5692 5692 5691 5690 5690 5689 5687 5684 5682 5681 5679 5676 5675 5672 5667 5661 5659 5653 5647 5641 5636 5634 5631 5631 5628 5625 5628 5629 5630 5629 5630 5632 5634 5634 5633 5636
5712 5707 5704 5700 5697 5695 5691 5689 5686 5683 5683 5683 5681 5680 5679 5678 5677 5675 5673 5672 5669 5667 5665 5660 5655 5653 5644 5636 5632 5628 5625 5625 5624 5625 5619 5619 5623 5622 5622 5622 5625 5627 5627 5627 5628
5706 5703 5699 5695 5692 5688 5685 5681 5679 5675 5674 5675 5673 5673 5672 5670 5668 5667 5666 5663 5661 5660 5656 5651 5645 5641 5634 5629 5624 5620 5618 5617 5617 5616 5614 5613 5618 5616 5618 5616 5618 5619 5619 5621 5621
5700 5696 5693 5689 5685 5681 5678 5674 5672 5670 5669 5666 5666 5665 5664 5662 5660 5659 5658 5656 5653 5650 5646 5642 5636 5633 5630 5626 5621 5617 5615 5612 5610 5609 5611 5608 5612 5610 5610 5609 5609 5610 5612 5614 5615
5696 5690 5687 5683 5678 5674 5671 5667 5666 5663 5662 5660 5659 5657 5656 5654 5652 5651 5650 5648 5646 5643 5639 5635 5632 5628 5624 5621 5617 5614 5611 5608 5606 5604 5605 5604 5604 5604 5605 5605 5604 5604 5604 5605 5607
5690 5685 5680 5676 5671 5667 5664 5660 5657 5656 5655 5653 5653 5649 5647 5646 5645 5643 5642 5641 5638 5635 5632 5630 5627 5623 5619 5615 5612 5610 5608 5605 5603 5602 5599 5601 5599 5598 5598 5597 5598 5598 5596 5594 5598
5683 5680 5675 5669 5665 5661 5654 5654 5649 5647 5647 5645 5644 5641 5640 5639 5638 5637 5635 5634 5632 5629 5626 5625 5623 5620 5616 5612 5608 5606 5604 5601 5598 5598 5596 5595 5595 5593 5593 5592 5592 5590 5587 5586 5584
5676 5672 5668 5663 5658 5653 5648 5644 5641 5638 5638 5637 5636 5634 5632 5631 5631 5630 5629 5628 5626 5624 5620 5619 5617 5614 5612 5606 5604 5604 5601 5598 5597 5595 5591 5588 5588 5587 5585 5583 5581 5579 5576 5574 5573